Location: Kansas State University
(39.1938°N, 96.5858°W)
Time: 07:26:34
(UTC-06:00)

Daily predictions for brighter satellites

Satellite Brightness Start Highest point End
(mag) Time Altitude Azimuth Time Altitude Azimuth Time Altitude Azimuth
SL-8 R/B 3.7 18:30:07 10° SW 18:34:53 74° SE 18:39:39 10° ENE
Cosmos 44 4.1 18:30:43 10° NNW 18:35:19 35° NE 18:40:05 10° ESE
Cosmos 2333 Rocket 2.9 18:30:13 10° NNW 18:35:49 61° WSW 18:41:20 10° S
Cosmos 2082 3.7 18:32:05 10° SSW 18:37:39 72° ESE 18:43:16 10° NNE
Cosmos 2056 Rocket 3.8 18:35:41 10° NNW 18:41:08 80° WSW 18:46:33 10° SSE
Aureole 3 4.3 18:36:36 10° SSE 18:42:31 51° E 18:47:12 10° NNE
CZ-2C R/B 4.4 18:39:47 10° N 18:44:10 59° WNW 18:48:30 10° SSW
Lacrosse 5 2.3 18:40:38 10° NW 18:45:40 67° SW 18:50:40 10° SSE
Cosmos 1452 Rocket 3.8 18:42:14 10° N 18:47:17 45° ENE 18:52:17 10° SE
SPOT 3 Rocket 3.6 18:43:59 10° SSE 18:49:06 64° ENE 18:54:15 10° N
DNEPR-1 R/B 4.3 18:46:54 10° SW 18:50:59 51° NW 18:55:13 10° NNE
Cosmos 158 Rocket 4.0 18:47:34 10° S 18:52:15 48° ESE 18:56:58 10° NNE
Iridium 4 Rocket 4.0 18:48:24 10° NNE 18:52:41 31° E 18:56:38 10° SE
Cosmos 1437 Rocket 4.2 18:50:08 10° SE 18:53:01 19° E 18:55:56 10° NE
EO 1 Del DPAF 3.2 18:52:04 10° NNE 18:55:53 68° ESE 18:59:41 10° S
Shenzhou-11 Module 4.5 18:54:07 10° W 18:56:25 20° SSW 18:58:41 10° SSE
Cosmos 1980 4.2 18:51:24 10° NNW 18:57:02 65° WSW 19:02:38 10° S
Gbstr 26 Del rocket 4.5 18:55:10 10° SSE 18:57:23 15° SE 18:58:46 13° ESE
ATLAS 3B R/B 4.3 18:52:43 10° WSW 18:59:05 33° NW 19:05:16 10° NNE
COSMOS 2455 4.5 18:56:53 10° ESE 18:59:10 12° E 18:59:33 12° E
Cosmos 405 3.2 18:57:57 10° SSW 19:01:26 71° W 19:04:56 10° N
Cosmos 1378 Rocket 3.8 19:02:00 10° N 19:06:16 45° E 19:10:31 10° SSE
Landsat 4 4.1 19:02:50 10° N 19:06:34 66° WNW 19:10:16 10° SSW
Cosmos 1420 Rocket 4.1 19:02:43 10° N 19:07:55 55° ENE 19:13:06 10° SSE
Cosmos 1782 Rocket 4.2 19:08:26 10° SSE 19:12:27 34° E 19:16:27 10° NNE
Sich 1 Rocket 3.8 19:09:26 10° SSE 19:13:47 48° E 19:18:06 10° NNE
FengYun 1-2 T 4.1 19:11:05 10° SSE 19:16:34 75° ENE 19:22:03 10° N
Cosmos 1464 Rocket 3.9 19:15:07 10° N 19:21:15 73° E 19:27:23 10° SSE
OAO 2 Rocket 3.9 19:17:06 10° WSW 19:21:46 43° SSE 19:24:26 23° ESE
Okean 2 Rocket 3.7 19:26:07 10° SSE 19:30:00 32° E 19:33:55 10° NNE
FALCON 9 R/B 4.3 19:25:33 10° W 19:32:49 71° S 19:52:01 22° ESE
ARGOS Delta rocket 3.9 19:29:22 10° NNE 19:34:06 51° E 19:38:33 10° S
SJ-6B 2.6 19:30:31 10° SSE 19:34:13 62° ENE 19:38:01 10° N
SeaSat 1 2.6 19:32:53 22° SE 19:35:50 50° ENE 19:40:36 10° NNW
Tiangong 2 2.0 19:34:03 10° W 19:37:05 42° SSW 19:38:04 31° SSE
FREGAT/IRIS 3.3 19:34:52 10° S 19:37:45 54° W 19:40:41 10° NNW
Envisat 3.0 19:33:59 10° SSE 19:38:55 54° ENE 19:43:53 10° N
Cosmos 2227 Rocket 4.1 19:34:32 10° WSW 19:39:21 28° WNW 19:44:13 10° N
Cosmos 2237 Rocket 4.2 19:36:24 10° NW 19:41:09 29° WSW 19:45:53 10° SSW
Thor Agena Rocket 3.4 19:36:48 10° NNE 19:41:53 69° ESE 19:46:54 10° S
USA 215 3.2 19:37:21 14° NE 19:43:06 84° SE 19:49:39 10° SW
H-2A R/B 4.3 19:39:51 10° SSW 19:43:31 38° W 19:47:11 10° NNW
HJ-1C 3.5 19:40:48 10° S 19:44:13 77° W 19:47:38 10° NNW
SL-16 R/B 2.5 19:39:48 10° NNW 19:45:27 69° WSW 19:51:03 10° SSE
Cosmos 44 Rocket 3.5 19:40:54 10° NNW 19:45:58 79° WSW 19:50:13 15° SSE
USA 32 4.0 19:41:47 10° S 19:47:01 83° W 19:52:16 10° N
Cosmos 1269 Rocket 3.9 19:43:10 10° SSW 19:48:27 85° ESE 19:53:46 10° NNE
OE (NEXTSAT) 4.5 19:45:33 10° SW 19:48:56 58° SSE 19:48:56 58° SSE
Okean 1 3.3 19:45:53 10° N 19:49:53 78° W 19:53:50 10° S
Meteor 1-13 Rocket 4.3 19:45:37 10° N 19:50:58 48° ENE 19:52:47 35° SE
Cosmos 2297 Rocket 4.3 19:48:42 10° WSW 19:53:21 26° NW 19:58:02 10° N
Cosmos 1110 Rocket 4.4 19:49:40 10° N 19:54:41 42° ENE 19:54:46 42° ENE
Cosmos 494 Rocket 4.2 19:50:59 10° S 19:55:49 46° ESE 19:55:49 46° ESE
ERS-2 3.7 19:52:35 10° SSW 19:56:00 36° W 19:59:27 10° NNW
Cosmos 2034 Rocket 4.1 19:50:19 10° N 19:56:43 81° W 20:03:04 10° S
Cosmos 921 Rocket 3.1 19:53:23 10° NNW 19:57:56 83° WSW 20:00:38 24° S
CZ-2D R/B 3.4 19:57:56 16° S 20:00:55 71° WSW 20:04:49 10° NNW
Cosmos 2346 Rocket 4.3 19:57:37 10° S 20:03:47 70° E 20:09:56 10° NNE
Cosmos 1603 3.7 19:58:25 10° NNW 20:03:58 55° ENE 20:04:34 52° E
Resurs 1-3 4.1 20:08:18 47° NNE 20:08:18 47° NNE 20:11:37 10° N
Cosmos 1634 Rocket 4.0 20:04:03 10° N 20:10:03 51° E 20:10:07 51° E
Cosmos 1816 Rocket 4.5 20:04:52 10° S 20:11:14 86° W 20:17:37 10° N
Cosmos 1602 4.5 20:10:03 10° SSW 20:13:52 52° W 20:17:41 10° N
USA 267 3.8 20:14:32 37° NE 20:15:30 39° NNE 20:21:27 10° NW
Resurs 01 Rocket 2.2 20:20:12 50° N 20:20:12 50° N 20:23:29 10° NNW
Cosmos 1975 Rocket 3.8 20:16:12 10° NNW 20:20:31 52° W 20:23:53 16° SSW
CENTAUR R/B 3.7 20:14:54 10° WSW 20:20:36 41° NW 20:27:06 10° NNE
CZ-4C R/B 3.5 20:16:24 10° NNW 20:22:50 36° NE 20:22:50 36° NE
Cosmos 2263 Rocket 4.1 20:18:08 10° S 20:19:05 15° S 20:19:05 15° S
CZ-3C R/B 4.2 20:20:54 10° SSW 20:25:19 22° SSE 20:25:19 22° SSE
Cosmos 1331 Rocket 4.3 20:22:20 10° NNW 20:26:40 57° N 20:26:40 57° N
Spot 2 Rocket 3.8 20:29:59 56° N 20:29:59 56° N 20:33:58 10° NNW
Geosat 4.3 20:31:24 47° N 20:32:41 65° WNW 20:37:38 10° SW
Meteor 1-11 Rocket 3.8 20:30:15 10° SSW 20:35:47 71° W 20:41:28 10° N
Meteor 2-4 Rocket 3.7 20:31:01 10° NNW 20:36:51 81° W 20:37:03 79° SW
COSMOS 2455 3.1 20:38:10 10° SSW 20:42:50 57° SSW 20:42:50 57° SSW
BREEZE-M DEB (TANK) 4.5 21:00:12 10° WSW 21:16:25 11° NE 21:17:02 10° NE
USA 215 4.5 21:24:42 32° N 21:25:40 34° NNW 21:31:22 10° W
CZ-4C R/B 4.4 22:04:38 10° NW 22:08:03 30° NW 22:08:03 30° NW
